EW8374 Weather Reports


time (UTC)temp
F
wind
direction
speed
knots
gust
knots
rain 1hr
in
rain 24hr
in
rain mn
in
humidity
%
barometer
mb
20260509201535 65 244 6.1 13.0 0.00 0.37 0.37 70 1401.0
20260509201029 65 259 5.2 12.2 0.00 0.37 0.37 68 1401.1
20260509200524 66 240 3.5 8.7 0.00 0.37 0.37 71 1401.1
20260509200018 65 232 3.5 11.3 0.00 0.37 0.37 71 1401.1
20260509195511 65 227 4.3 11.3 0.00 0.37 0.37 71 1401.3
20260509193448 64 231 4.3 12.2 0.00 0.37 0.37 72 1401.8
20260509192942 64 344 6.1 12.2 0.00 0.37 0.37 72 1402.0
20260509192436 64 198 6.1 12.2 0.00 0.37 0.37 71 1402.1
20260509191423 63 222 4.3 12.2 0.00 0.37 0.37 71 1402.1
20260509190918 63 178 5.2 12.2 0.00 0.37 0.37 69 1402.1
20260509190412 63 149 5.2 11.3 0.00 0.37 0.37 73 1402.1
20260509185400 62 169 3.5 8.7 0.00 0.37 0.37 74 1402.4
20260509184854 62 185 2.6 7.8 0.00 0.37 0.37 79 1402.4
20260509184348 61 201 2.6 7.0 0.00 0.37 0.37 82 1402.4
20260509183842 60 202 2.6 7.8 0.00 0.37 0.37 82 1402.5
20260509182830 58 273 2.6 6.1 0.00 0.37 0.37 82 1402.6
20260509182324 58 321 2.6 6.1 0.00 0.37 0.37 83 1402.8
20260509181312 58 213 3.5 7.0 0.00 0.37 0.37 84 1402.6
20260509180806 58 261 2.6 6.1 0.00 0.37 0.37 85 1402.6
20260509180300 58 210 2.6 6.1 0.00 0.37 0.37 84 1402.6
20260509175757 57 209 1.7 4.3 0.00 0.37 0.37 86 1402.5
20260509175257 57 245 2.6 7.0 0.00 0.37 0.37 86 1402.5
20260509174756 57 229 3.5 8.7 0.00 0.37 0.37 84 1402.5
20260509174255 57 207 3.5 8.7 0.00 0.37 0.37 86 1402.5
20260509173754 57 225 2.6 7.0 0.00 0.37 0.37 86 1402.4
20260509173254 57 242 1.7 7.0 0.00 0.37 0.37 88 1402.2
20260509172755 56 195 2.6 7.8 0.00 0.37 0.37 89 1402.2
20260509172254 56 209 1.7 7.8 0.00 0.37 0.37 89 1402.2
20260509171755 56 178 1.7 6.1 0.01 0.37 0.37 91 1402.2
20260509171255 55 211 0.9 4.3 0.01 0.37 0.37 91 1402.2
20260509170755 55 188 0.9 4.3 0.02 0.37 0.37 91 1402.2
20260509170255 55 207 1.7 3.5 0.02 0.37 0.37 92 1402.4
20260509165755 55 207 1.7 3.5 0.02 0.37 0.37 92 1402.2
20260509165254 54 227 1.7 4.3 0.02 0.37 0.37 92 1402.1
20260509164753 54 215 0.9 4.3 0.02 0.37 0.37 92 1402.1
20260509164254 54 139 1.7 5.2 0.02 0.37 0.37 92 1402.0
20260509163752 54 148 1.7 5.2 0.02 0.37 0.37 92 1402.0
20260509163252 54 154 1.7 7.0 0.02 0.37 0.37 92 1402.1
20260509162752 54 192 2.6 7.0 0.02 0.37 0.37 92 1402.0
20260509162250 54 153 2.6 7.8 0.02 0.37 0.37 93 1402.0
20260509161750 54 135 1.7 7.8 0.01 0.36 0.36 93 1402.1
20260509161250 54 193 1.7 4.3 0.01 0.36 0.36 93 1402.2
20260509160750 54 190 1.7 7.0 0.00 0.35 0.35 93 1402.2
20260509160251 54 217 1.7 7.0 0.00 0.35 0.35 93 1402.4
20260509155250 54 146 3.5 9.6 0.01 0.35 0.35 93 1402.2
20260509154750 54 157 3.5 9.6 0.01 0.35 0.35 94 1402.2
20260509154250 54 144 1.7 5.2 0.01 0.35 0.35 94 1402.4
20260509153751 54 163 1.7 7.0 0.02 0.35 0.35 94 1402.4
20260509153251 54 198 1.7 7.0 0.02 0.35 0.35 94 1402.5
20260509152752 53 203 1.7 6.1 0.02 0.35 0.35 94 1402.8
20260509152252 53 148 1.7 6.1 0.02 0.35 0.35 94 1402.8
20260509151247 53 148 1.7 6.1 0.03 0.35 0.35 94 1402.9
20260509150748 53 163 0.9 6.1 0.03 0.35 0.35 94 1402.9
20260509150247 53 162 0.9 4.3 0.03 0.35 0.35 94 1402.9
20260509145748 53 156 1.7 4.3 0.03 0.34 0.34 94 1402.9
20260509144748 53 139 1.7 5.2 0.03 0.34 0.34 94 1402.9
20260509144246 53 211 1.7 5.2 0.04 0.34 0.34 94 1402.9
20260509143747 53 174 1.7 6.1 0.03 0.33 0.33 94 1402.8
20260509143243 52 178 1.7 6.1 0.04 0.33 0.33 94 1402.9
20260509142742 52 198 1.7 4.3 0.04 0.33 0.33 94 1402.9
20260509141742 52 162 1.7 6.1 0.05 0.33 0.33 94 1402.9
20260509140242 52 149 1.7 5.2 0.06 0.32 0.32 94 1403.0
20260509135744 52 167 1.7 6.1 0.06 0.31 0.31 94 1403.2
20260509135244 52 193 1.7 6.1 0.06 0.31 0.31 94 1403.2
20260509134241 52 149 1.7 6.1 0.07 0.30 0.30 94 1403.0
20260509133240 52 155 2.6 9.6 0.08 0.29 0.29 94 1403.2
20260509132736 52 218 2.6 9.6 0.09 0.29 0.29 94 1403.3
20260509132238 52 181 1.7 7.8 0.10 0.29 0.29 95 1403.3
20260509131237 52 155 1.7 4.3 0.10 0.27 0.27 94 1403.4
20260509130738 52 155 1.7 4.3 0.11 0.27 0.27 94 1403.4
20260509130234 52 147 1.7 4.3 0.10 0.26 0.26 94 1403.4
20260509125733 51 146 0.9 4.3 0.10 0.25 0.25 94 1403.6
20260509124232 51 170 0.9 6.1 0.10 0.23 0.23 94 1403.6
20260509123732 51 161 0.9 3.5 0.09 0.22 0.22 94 1403.6
20260509123232 51 191 0.9 5.2 0.08 0.21 0.21 94 1403.6
20260509122733 51 173 0.9 5.2 0.07 0.20 0.20 94 1403.6
20260509122227 51 208 0.9 6.1 0.06 0.19 0.19 94 1403.6
20260509121215 51 154 1.7 6.1 0.04 0.17 0.17 94 1403.4
20260509120203 51 203 0.9 5.2 0.03 0.15 0.15 94 1403.6
20260509115657 51 190 1.7 5.2 0.03 0.15 0.15 94 1403.4
20260509115151 51 173 0.9 4.3 0.03 0.14 0.14 94 1403.6
20260509114645 51 180 0.0 2.6 0.03 0.14 0.14 94 1403.6
20260509113632 51 160 0.9 1.7 0.03 0.13 0.13 94 1403.4
20260509112621 51 146 0.0 1.7 0.04 0.13 0.13 94 1403.3
20260509112115 51 151 0.0 0.9 0.04 0.13 0.13 94 1403.3
20260509111609 51 152 0.0 1.7 0.05 0.13 0.13 94 1403.3
20260509111103 51 150 0.0 2.6 0.05 0.13 0.13 94 1403.3
20260509110557 51 130 0.0 2.6 0.05 0.12 0.12 94 1403.2
20260509105545 51 142 0.9 3.5 0.05 0.12 0.12 93 1403.3
20260509104540 51 128 0.9 3.5 0.04 0.11 0.11 93 1403.3
20260509104036 51 162 0.9 2.6 0.05 0.11 0.11 93 1403.3
20260509103535 51 131 0.9 3.5 0.04 0.10 0.10 93 1403.4
20260509103032 51 134 0.9 3.5 0.04 0.09 0.10 93 1403.3
20260509102532 51 140 0.9 2.6 0.04 0.09 0.09 93 1403.4
20260509101531 51 146 0.0 1.7 0.03 0.08 0.08 92 1403.4
20260509101030 51 144 0.0 1.7 0.04 0.08 0.08 92 1403.4
20260509100529 51 192 0.9 3.5 0.04 0.07 0.07 92 1403.6
20260509100028 51 159 1.7 5.2 0.04 0.07 0.07 92 1403.4
20260509095528 51 150 2.6 6.1 0.05 0.07 0.07 91 1403.4
20260509095029 51 134 1.7 6.1 0.06 0.07 0.07 91 1403.4
20260509094029 51 147 0.9 5.2 0.06 0.06 0.06 90 1403.7
20260509093527 51 161 0.9 5.2 0.06 0.06 0.06 90 1403.8
20260509093028 52 153 1.7 6.1 0.05 0.05 0.05 89 1404.0
20260509092528 52 188 1.7 6.1 0.05 0.05 0.05 89 1404.0
20260509091522 52 227 2.6 7.0 0.05 0.05 0.05 87 1404.1
20260509091016 52 225 2.6 9.6 0.04 0.04 0.04 86 1404.1
20260509090511 53 206 3.5 9.6 0.03 0.03 0.03 86 1404.1
20260509090005 53 196 3.5 8.7 0.03 0.03 0.03 85 1404.1
20260509085459 53 253 5.2 11.3 0.02 0.02 0.02 84 1404.1
20260509084953 54 236 7.0 17.4 0.01 0.01 0.01 82 1404.1
20260509084447 54 304 8.7 17.4 0.01 0.01 0.01 81 1404.0
20260509083435 51 262 3.5 14.8 0.00 0.00 0.00 90 1403.7
20260509082929 50 235 0.0 6.1 0.00 0.00 0.00 93 1403.4
20260509081411 49 322 0.0 1.7 0.00 0.00 0.00 93 1403.2
20260509080905 49 59 0.0 1.7 0.00 0.00 0.00 93 1402.8
20260509075853 49 59 0.0 1.7 0.00 0.00 0.00 92 1402.4
20260509075347 49 71 0.0 1.7 0.00 0.00 0.00 92 1402.2
20260509074841 49 80 0.9 1.7 0.00 0.00 0.00 92 1402.2
20260509074334 49 304 0.0 1.7 0.00 0.00 0.00 92 1402.2
20260509073829 49 331 0.0 0.0 0.00 0.00 0.00 92 1402.1
20260509072817 49 331 0.0 0.0 0.00 0.00 0.00 92 1402.0
20260509071805 49 331 0.0 0.0 0.00 0.00 0.00 91 1401.7
20260509071258 49 331 0.0 0.0 0.00 0.00 0.00 91 1401.7
20260509070753 49 331 0.0 0.0 0.00 0.00 0.00 91 1401.7
20260509065744 49 331 0.0 0.0 0.00 0.00 0.00 91 1401.7
20260509064741 49 331 0.0 0.0 0.00 0.00 0.00 91 1401.8
20260509064242 50 331 0.0 0.0 0.00 0.00 0.00 91 1401.8
20260509062738 50 331 0.9 2.6 0.00 0.00 0.00 91 1402.1
20260509062238 50 331 0.9 2.6 0.00 0.00 0.00 91 1402.2
20260509061235 50 342 0.0 1.7 0.00 0.00 0.00 90 1402.5
20260509055736 50 345 0.0 2.6 0.00 0.00 0.00 91 1403.0
20260509055237 50 344 0.0 2.6 0.00 0.00 0.00 91 1403.2
20260509054737 50 349 0.0 0.0 0.00 0.00 0.00 91 1403.2
20260509054236 50 349 0.0 0.0 0.00 0.00 0.00 91 1403.4
20260509053736 50 349 0.0 0.0 0.00 0.00 0.00 91 1403.4
20260509053236 50 349 0.0 0.0 0.00 0.00 0.00 90 1403.6
20260509052735 50 349 0.0 0.0 0.00 0.00 0.00 90 1403.7
20260509052236 50 349 0.0 0.0 0.00 0.00 0.00 90 1403.7
20260509051736 50 349 0.0 0.0 0.00 0.00 0.00 90 1403.7
20260509051235 50 349 0.0 0.0 0.00 0.00 0.00 89 1403.8
20260509050736 50 349 0.0 0.0 0.00 0.00 0.00 89 1404.0
20260509050235 51 349 0.0 0.0 0.00 0.00 0.00 89 1404.0
20260509045737 51 349 0.0 0.0 0.00 0.00 0.00 89 1404.0
20260509045235 51 349 0.0 0.9 0.00 0.00 0.00 89 1404.1
20260509044736 51 349 0.0 1.7 0.00 0.00 0.00 89 1404.1
20260509043737 51 335 0.0 0.0 0.00 0.00 0.00 89 1404.1
20260509043234 51 335 0.9 2.6 0.00 0.00 0.00 89 1404.1
20260509042734 51 335 0.9 2.6 0.00 0.00 0.00 89 1404.2
20260509042228 51 342 0.0 1.7 0.00 0.00 0.00 88 1404.2
20260509041722 51 57 0.0 0.0 0.00 0.00 0.00 88 1404.4
20260509041219 51 57 0.0 0.0 0.00 0.00 0.00 88 1404.4
20260509040719 51 57 0.0 0.0 0.00 0.00 0.00 88 1404.5
20260509040219 51 57 0.0 0.0 0.00 0.00 0.00 88 1404.5
20260509035717 51 57 0.0 0.0 0.00 0.00 0.00 87 1404.7
20260509035214 51 57 0.0 0.9 0.00 0.00 0.00 88 1404.8
20260509034209 52 77 0.9 2.6 0.00 0.00 0.00 88 1404.7
20260509033707 52 0 0.9 2.6 0.00 0.00 0.00 87 1404.5
20260509033208 52 330 0.9 2.6 0.00 0.00 0.00 87 1404.5
20260509032208 52 34 0.9 3.5 0.00 0.00 0.00 87 1404.8
20260509031708 52 22 0.9 3.5 0.00 0.00 0.00 87 1404.9
20260509031208 52 27 0.9 2.6 0.00 0.00 0.00 88 1405.1
20260509030206 51 46 0.9 2.6 0.00 0.00 0.00 88 1405.2
20260509025706 51 34 0.9 2.6 0.00 0.00 0.00 88 1405.2
20260509025206 51 76 0.9 2.6 0.00 0.00 0.00 88 1405.2
20260509024706 51 65 0.0 1.7 0.00 0.00 0.00 88 1405.3
20260509023700 52 355 0.0 1.7 0.00 0.00 0.00 88 1405.3
20260509022648 52 12 0.0 1.7 0.00 0.00 0.00 87 1405.1
20260509021636 52 344 0.9 3.5 0.00 0.00 0.00 87 1404.9
20260509021129 52 327 0.0 3.5 0.00 0.00 0.00 86 1404.8
20260509020624 52 5 0.0 0.0 0.00 0.00 0.00 86 1404.8
20260509020118 52 5 0.0 1.7 0.00 0.00 0.00 85 1404.8
20260509015106 52 9 0.0 0.9 0.00 0.00 0.00 84 1404.5
20260509014601 52 9 0.0 1.7 0.00 0.00 0.00 83 1404.4
20260509014053 52 9 0.9 2.6 0.00 0.00 0.00 82 1404.5
20260509013548 53 345 0.0 2.6 0.00 0.00 0.00 83 1404.5
20260509013042 53 339 0.0 0.9 0.00 0.00 0.00 81 1404.2
20260509012535 53 339 0.0 0.0 0.00 0.00 0.00 81 1404.1
20260509011524 53 339 0.0 1.7 0.00 0.00 0.00 80 1404.1
20260509011018 53 339 0.0 1.7 0.00 0.00 0.00 80 1404.0
20260509010512 53 339 0.0 2.6 0.00 0.00 0.00 80 1404.0
20260509010006 53 339 0.0 2.6 0.00 0.00 0.00 79 1403.8
20260509005459 54 325 0.0 0.9 0.00 0.00 0.00 77 1403.8
20260509004954 54 46 0.0 0.0 0.00 0.00 0.00 76 1403.8
20260509004448 54 46 0.0 0.0 0.00 0.00 0.00 75 1403.8
20260509003942 55 46 0.0 0.0 0.00 0.00 0.00 74 1403.8
20260509003436 55 46 0.0 0.0 0.00 0.00 0.00 74 1403.8
20260509002930 55 46 0.0 0.0 0.00 0.00 0.00 73 1404.1
20260509002424 56 46 0.0 2.6 0.00 0.00 0.00 72 1404.0
20260509001918 56 27 0.9 2.6 0.00 0.00 0.00 68 1403.8
20260509001412 56 24 0.9 2.6 0.00 0.00 0.00 68 1404.0
20260509000359 57 42 1.7 3.5 0.00 0.00 0.00 66 1404.0
20260508235854 57 31 0.9 2.6 0.00 0.00 0.00 66 1403.8
20260508235348 57 344 0.9 2.6 0.00 0.00 0.00 66 1403.8
20260508234848 57 36 0.9 2.6 0.00 0.00 0.00 65 1404.0
20260508234345 57 5 0.9 4.3 0.00 0.00 0.00 65 1404.0
20260508233343 57 33 2.6 4.3 0.00 0.00 0.00 65 1403.7
20260508232844 58 27 1.7 4.3 0.00 0.00 0.00 65 1403.8
20260508232342 58 27 1.7 3.5 0.00 0.00 0.00 64 1404.0
20260508231842 58 22 0.9 3.5 0.00 0.00 0.00 65 1403.7
20260508231342 58 24 0.9 3.5 0.00 0.00 0.00 67 1403.7
20260508230840 59 27 0.9 3.5 0.00 0.00 0.00 62 1403.7
20260508230340 59 26 1.7 3.5 0.00 0.00 0.00 64 1403.7
20260508225840 59 10 1.7 3.5 0.00 0.00 0.00 62 1403.8
20260508225338 59 13 1.7 3.5 0.00 0.00 0.00 62 1403.8
20260508224837 59 24 1.7 4.3 0.00 0.00 0.00 60 1403.7
20260508224338 59 0 0.9 4.3 0.00 0.00 0.00 61 1403.7
20260508223837 59 22 0.0 2.6 0.00 0.00 0.00 63 1403.8
20260508223337 59 34 0.0 1.7 0.00 0.00 0.00 63 1403.7
20260508222836 59 32 0.0 1.7 0.00 0.00 0.00 64 1403.8
20260508222333 59 40 0.0 1.7 0.00 0.00 0.00 62 1403.7
20260508221834 59 47 0.0 1.7 0.00 0.00 0.00 62 1403.8
20260508220821 59 38 0.0 1.7 0.00 0.00 0.00 61 1404.0
20260508220315 59 28 0.0 1.7 0.00 0.00 0.00 60 1404.0
20260508215809 60 67 0.0 1.7 0.00 0.00 0.00 62 1404.1
20260508215306 60 90 0.9 2.6 0.00 0.00 0.00 58 1404.1
20260508214759 60 15 0.9 2.6 0.00 0.00 0.00 56 1404.2
20260508213759 59 129 1.7 3.5 0.00 0.00 0.00 63 1404.1
20260508213300 59 105 0.9 3.5 0.00 0.00 0.00 60 1404.4
20260508212759 59 118 0.9 3.5 0.00 0.00 0.00 63 1404.4
20260508212257 59 88 0.9 3.5 0.00 0.00 0.00 63 1404.7
20260508211758 58 66 0.0 1.7 0.00 0.00 0.00 62 1404.8
20260508210758 58 271 0.0 0.0 0.00 0.00 0.00 65 1405.1
20260508210257 58 271 0.0 0.0 0.00 0.00 0.00 70 1404.9
20260508205757 58 271 0.0 0.0 0.00 0.00 0.00 67 1404.9
20260508205254 58 271 0.0 0.0 0.00 0.00 0.00 67 1404.9
20260508204753 58 271 0.0 0.0 0.00 0.00 0.00 69 1405.1
20260508204253 58 271 0.0 0.0 0.00 0.00 0.00 76 1405.2
20260508203752 57 271 0.0 0.0 0.00 0.00 0.00 75 1405.3
20260508203252 57 271 0.0 0.0 0.00 0.00 0.00 64 1405.3
20260508202752 57 271 0.0 0.9 0.00 0.00 0.00 64 1405.6
20260508202253 57 271 0.0 0.9 0.00 0.00 0.00 64 1405.7